Tracking 19795 objects as of 19-Jul-2019
HD Live streaming from Space Station
objects crossing your sky now

NOAA 16 DEB

Track NOAA 16 DEB now!
10-day predictions


NORAD ID: 41232
Int'l Code: 2000-055EM
Perigee: 850.8 km
Apogee: 929.7 km
Inclination: 98.9 °
Period: 102.6 minutes
Semi major axis: 7261 km
RCS: Unknown
Launch date: September 21, 2000
Source: United States (US)
Launch site: AIR FORCE WESTERN TEST RANGE (AFWTR)

Note: This is SATELLITE DEBRIS
aabbcc
Your satellite tracking list
Your tracking list is empty




NASA's NSSDC Master Catalog

Two Line Element Set (TLE):
1 41232U 00055EM  19200.43442651  .00000166  00000-0  13316-3 0  9993
2 41232  98.9447 263.8644 0054323 161.4967 198.8191 14.03104046184181
Source of the keplerian elements: AFSPC